Weather History for KGZH - April, 2014

Change the Weather History Date:

Friday, April 11, 2014

  Actual Average Record
Temperature  
Mean Temperature 62 °F -  
Max Temperature 79 °F - - ()
Min Temperature 45 °F - - ()
Degree Days  
Heating Degree Days 4    
Growing Degree Days 12 (Base 50)    
Moisture  
Dew Point 51 °F    
Average Humidity 71    
Maximum Humidity 93    
Minimum Humidity 42    
Precipitation  
Precipitation 0.00 in - - ()
Sea Level Pressure  
Sea Level Pressure 30.21 in    
Wind  
Wind Speed 2 mph (SSW)    
Max Wind Speed 10 mph    
Max Gust Speed -    
Visibility 8 miles    
Events      
T = Trace of Precipitation, MM = Missing Value Source: NWS Daily Summary

Daily Weather History Graph

Daily Weather History Graph

Search for Another Location

Airport or City:

Trip Planner

Search our weather history database for the weather conditions in past years. The results will help you decide how hot, cold, wet, or windy it might be!

Date:

Astronomy

Apr. 11, 2014 Rise Set
Actual Time 6:24 AM CDT 7:14 PM CDT
Civil Twilight 5:59 AM CDT 7:39 PM CDT
Nautical Twilight 5:30 AM CDT 8:08 PM CDT
Astronomical Twilight 5:00 AM CDT 8:38 PM CDT
Moon 4:06 PM CDT (4/11) 4:06 AM CDT (4/11)
Length of Visible Light 13h 39m
Length of Day
12h 49m
Waxing Gibbous, 87% of the Moon is Illuminated
Apr 11
Waxing Gibbous
Apr 15
Full
Apr 22
Last Quarter
Apr 29
New
May 6
First Quarter

Hourly Weather History & Observations

Time (CDT) Temp. Dew Point Humidity Pressure Visibility Wind Dir Wind Speed Gust Speed Precip Events Conditions
12:53 AM 50.0 °F 46.0 °F 86% 30.23 in 10.0 mi Calm Calm - N/A   Clear
1:53 AM 48.9 °F 45.0 °F 86% 30.22 in 8.0 mi Calm Calm - N/A   Clear
2:18 AM 48.0 °F 45.0 °F 89% 30.21 in 2.5 mi Calm Calm - N/A   Clear
2:26 AM 48.0 °F 45.0 °F 89% 30.21 in 8.0 mi Calm Calm - N/A   Clear
2:53 AM 46.9 °F 44.1 °F 90% 30.20 in 5.0 mi Calm Calm - N/A   Clear
3:53 AM 46.9 °F 44.1 °F 90% 30.20 in 6.0 mi Calm Calm - N/A   Clear
4:53 AM 45.0 °F 43.0 °F 93% 30.21 in 6.0 mi Calm Calm - N/A   Clear
5:53 AM 46.0 °F 42.1 °F 86% 30.23 in 5.0 mi Calm Calm - N/A   Partly Cloudy
6:53 AM 46.9 °F 44.1 °F 90% 30.25 in 5.0 mi Calm Calm - N/A   Partly Cloudy
7:53 AM 52.0 °F 48.0 °F 86% 30.27 in 7.0 mi North - - N/A   Clear
8:53 AM 60.1 °F 54.0 °F 80% 30.27 in 10.0 mi Calm Calm - N/A   Clear
9:53 AM 68.0 °F 55.0 °F 63% 30.27 in 10.0 mi Calm Calm - N/A   Clear
10:53 AM 71.1 °F 52.0 °F 51% 30.27 in 10.0 mi Variable 5.8 mph - N/A   Clear
11:53 AM 73.0 °F 52.0 °F 48% 30.25 in 10.0 mi SW 5.8 mph - N/A   Mostly Cloudy
12:53 PM 75.0 °F 53.1 °F 46% 30.23 in 10.0 mi SSW 10.4 mph - N/A   Scattered Clouds
1:53 PM 77.0 °F 54.0 °F 45% 30.21 in 10.0 mi South 6.9 mph - N/A   Scattered Clouds
2:53 PM 77.0 °F 52.0 °F 42% 30.17 in 10.0 mi SSW 5.8 mph - N/A   Partly Cloudy
3:53 PM 78.1 °F 53.1 °F 42% 30.15 in 10.0 mi South 8.1 mph - N/A   Mostly Cloudy
4:53 PM 75.9 °F 55.0 °F 48% 30.14 in 10.0 mi South 10.4 mph - N/A   Partly Cloudy
5:53 PM 75.9 °F 55.9 °F 50% 30.14 in 10.0 mi South 9.2 mph - N/A   Mostly Cloudy
6:53 PM 73.0 °F 57.0 °F 57% 30.14 in 10.0 mi South 9.2 mph - N/A   Clear
7:53 PM 68.0 °F 57.0 °F 68% 30.14 in 10.0 mi South 6.9 mph - N/A   Clear
8:53 PM 64.9 °F 55.9 °F 73% 30.17 in 10.0 mi SSW 5.8 mph - N/A   Clear
9:53 PM 64.0 °F 55.0 °F 73% 30.19 in 10.0 mi SSW 4.6 mph - N/A   Clear
10:53 PM 60.1 °F 54.0 °F 80% 30.19 in 10.0 mi Calm Calm - N/A   Clear
11:53 PM 57.0 °F 53.1 °F 87% 30.18 in 7.0 mi Calm Calm - N/A   Clear